Ottumwa, IA

11:14 AM CST on February 20, 2017 (GMT -0600)
Ottumwa Industrial

Weather History for KOTM - October, 2012

Change the Weather History Date:

Wednesday, October 3, 2012

  Actual Average Record
Temperature  
Mean Temperature 62 °F 57 °F  
Max Temperature 80 °F 69 °F 92 °F (2006)
Min Temperature 43 °F 45 °F 32 °F (1987)
Degree Days  
Heating Degree Days 3 9  
Month to date heating degree days 12 25  
Since 1 July heating degree days 152 146  
Cooling Degree Days 0 1  
Month to date cooling degree days 0 3  
Year to date cooling degree days 1220 930  
Growing Degree Days 12 (Base 50)    
Moisture  
Dew Point 43 °F    
Average Humidity 57    
Maximum Humidity 86    
Minimum Humidity 28    
Precipitation  
Precipitation 0.00 in 0.10 in 2.06 in (1925)
Month to date precipitation 0.00 0.30  
Year to date precipitation 19.26 30.79  
Sea Level Pressure  
Sea Level Pressure 29.92 in    
Wind  
Wind Speed 6 mph (SSE)    
Max Wind Speed 16 mph    
Max Gust Speed 21 mph    
Visibility 10 miles    
Events Rain    
T = Trace of Precipitation, MM = Missing Value Source: NWS Daily Summary

Daily Weather History Graph

Daily Weather History Graph

Search for Another Location

Airport or City:

Trip Planner

Search our weather history database for the weather conditions in past years. The results will help you decide how hot, cold, wet, or windy it might be!

Date:

Astronomy

Oct. 03, 2012 Rise Set
Actual Time 7:09 AM CDT 6:47 PM CDT
Civil Twilight 6:41 AM CDT 7:14 PM CDT
Nautical Twilight 6:09 AM CDT 7:46 PM CDT
Astronomical Twilight 5:37 AM CDT 8:18 PM CDT
Moon 8:37 PM CDT (10/3) 10:34 AM CDT (10/3)
Length of Visible Light 12h 33m
Length of Day
11h 38m
Waning Gibbous, 88% of the Moon is Illuminated
Oct 3
Waning Gibbous
Oct 8
Last Quarter
Oct 15
New
Oct 21
First Quarter
Oct 29
Full

Hourly Weather History & Observations

Time (CDT) Temp. Dew Point Humidity Pressure Visibility Wind Dir Wind Speed Gust Speed Precip Events Conditions
12:53 AM 48.9 °F 42.1 °F 77% 29.89 in 10.0 mi Calm Calm - N/A   Clear
1:53 AM 52.0 °F 44.1 °F 74% 29.90 in 10.0 mi Calm Calm - N/A   Clear
2:53 AM 50.0 °F 44.1 °F 80% 29.90 in 10.0 mi Calm Calm - N/A   Clear
3:53 AM 48.9 °F 44.1 °F 83% 29.90 in 10.0 mi Calm Calm - N/A   Clear
4:53 AM 48.0 °F 42.1 °F 80% 29.92 in 10.0 mi East 5.8 mph - N/A   Clear
5:53 AM 46.9 °F 41.0 °F 80% 29.93 in 10.0 mi ESE 3.5 mph - N/A   Clear
6:53 AM 48.0 °F 41.0 °F 77% 29.94 in 10.0 mi Calm Calm - N/A   Clear
7:53 AM 46.9 °F 41.0 °F 80% 29.95 in 10.0 mi ESE 4.6 mph - N/A   Clear
8:53 AM 57.0 °F 45.0 °F 64% 29.96 in 10.0 mi Calm Calm - N/A   Clear
9:53 AM 64.9 °F 41.0 °F 42% 29.96 in 10.0 mi South 5.8 mph - N/A   Clear
10:53 AM 70.0 °F 39.9 °F 33% 29.95 in 10.0 mi Variable 5.8 mph - 0.00 in   Clear
11:53 AM 73.0 °F 43.0 °F 34% 29.94 in 10.0 mi SSE 5.8 mph - 0.00 in   Clear
12:53 PM 75.9 °F 43.0 °F 31% 29.92 in 10.0 mi SSE 6.9 mph - 0.00 in Rain Light Rain
1:53 PM 78.1 °F 43.0 °F 29% 29.89 in 10.0 mi SSE 8.1 mph - 0.00 in   Clear
2:53 PM 78.1 °F 43.0 °F 29% 29.88 in 10.0 mi SSE 6.9 mph - N/A   Clear
3:53 PM 75.9 °F 44.1 °F 32% 29.87 in 9.0 mi South 5.8 mph - N/A   Partly Cloudy
4:53 PM 77.0 °F 46.0 °F 33% 29.87 in 9.0 mi SSE 10.4 mph - N/A   Mostly Cloudy
5:53 PM 75.9 °F 46.0 °F 35% 29.88 in 9.0 mi South 8.1 mph - N/A   Scattered Clouds
6:53 PM 68.0 °F 45.0 °F 43% 29.90 in 10.0 mi South 6.9 mph - N/A   Partly Cloudy
7:53 PM 63.0 °F 44.1 °F 50% 29.91 in 10.0 mi South 5.8 mph - N/A   Clear
8:53 PM 60.1 °F 44.1 °F 55% 29.93 in 10.0 mi South 8.1 mph - N/A   Clear
9:53 PM 57.9 °F 44.1 °F 60% 29.94 in 10.0 mi South 8.1 mph - N/A   Clear
10:53 PM 59.0 °F 46.0 °F 62% 29.96 in 10.0 mi South 9.2 mph - N/A   Clear
11:53 PM 55.9 °F 46.0 °F 69% 29.97 in 10.0 mi South 8.1 mph - N/A   Clear